Weather in Gryady

Russia / Kursk Oblast     51°48′51″N   34°59′20″E
temp.,
°C
wind,
m/s
gust,
m/s
humid.,
%
clouds,
%
prec.,
mm/h
press.,
hPa
HPBL,
m
8 august, mon
mon800:00+20n4552100 0.0 101872
03:00+18ne4886100 0.0 1018185
06:00+18n238198 0.0 101955
09:00+21ene246576 0.0 1019174
12:00+28nne114238 0.0 1019908
15:00+30wnw223791 0.0 10182092
18:00+25wnw34575 0.0 1019634
21:00+20wnw33779 0.0 102035
9 august, tue
tue900:00+17nw369696 0.1 1020134
03:00+16nnw349698 0.1 102089
06:00+16nw2496100 0.0 1020110
09:00+21nnw3477100 0.0 1020483
12:00+24nw346299 0.0 1020938
15:00+26nnw445161 0.0 10191481
18:00+24n5659100 0.0 1019813
21:00+20n3671100 0.0 1020123
10 august, wed
wed1000:00+18nne3778100 0.0 1019171
03:00+17ne3982100 0.0 1020268
06:00+17n3774100 0.0 1020284
09:00+17nne4775100 0.0 1020364
12:00+17nne5881100 0.3 1020437
15:00+21nne676197 0.3 1020976
18:00+21nne466293 0.0 1020864
21:00+18nne51079100 0.0 1020310
11 august, thu
thu1100:00+16nne4108967 0.0 1020298
03:00+16ne5129198 0.0 1020318
06:00+15ne5139199 0.8 1020340
09:00+20ene697292 0.8 1020552
12:00+24ne795723 0.0 1020851
15:00+27ene78475 0.0 10191320
18:00+26ene68535 0.0 10191013
21:00+20ne411691 0.0 1020237
12 august, fri
fri1200:00+19ne5126681 0.0 1021282
03:00+17ne51267100 0.0 1021248
06:00+16ne497397 0.2 1021190
09:00+21ene5861100 0.2 1021405
12:00+20ene487298 0.2 1022353
15:00+25ene4758100 0.5 1020942
18:00+23ne4871100 0.1 1020163
21:00+23ne3766100 0.1 1019111